Regional Weather Roundup
Issued by NWS Green Bay, WI

Home | Current Version | Previous Version | Graphics & Text | Print | Product List | Glossary Off
Versions: 1 2 3 4 5 6 7 8 9 10 11 12 13 14 15 16 17 18 19 20 21 22 23 24 25 26 27 28 29 30 31 32 33 34 35 36 37 38 39 40 41 42 43 44 45 46 47 48 49 50

536
ASUS43 KGRB 220511
RWRGRB

NORTH-CENTRAL AND NORTHEAST WISCONSIN REGIONAL WEATHER ROUNDUP
NATIONAL WEATHER SERVICE GREEN BAY WI
1200 AM CDT SAT JUL 22 2017

WIZ005-009-010>012-018-019-220600-
NORTH CENTRAL WISCONSIN

CITY           SKY/WX    TMP DP  RH WIND       PRES   REMARKS
IRONWOOD       CLOUDY    68  65  90 S7        29.79F
MANITOWISH WTR DRIZZLE   68  68 100 SW3       29.90F
ARBOR VITAE    LGT RAIN  72  68  88 CALM      29.91F
EAGLE RIVER    CLOUDY    67  62  83 CALM      29.91F
LAND O LAKES   CLOUDY    70  65  82 SW3       29.92F
RHINELANDER    CLOUDY    65  64  97 NE3       29.91F
PHILLIPS       LGT RAIN  67  67  99 CALM      29.92R
ANTIGO         CLOUDY    61  60  96 CALM      29.89F
TOMAHAWK         N/A     63  62  94 CALM      29.90F
MERRILL        CLOUDY    65  65 100 CALM      29.89F
$$

WIZ013-073-220600-
NORTHEAST WISCONSIN

CITY           SKY/WX    TMP DP  RH WIND       PRES   REMARKS
IRON MOUNTAIN  CLOUDY    67  63  87 CALM      29.87F
MARINETTE      CLEAR     68  68 100 CALM      29.86F FOG
OCONTO         PTCLDY    63  62  98 CALM      29.85F
$$

WIZ017-030-035>037-045-220600-
CENTRAL WISCONSIN

CITY           SKY/WX    TMP DP  RH WIND       PRES   REMARKS
MEDFORD        CLOUDY    64  63  97 CALM      29.89F
WAUSAU         MOCLDY    65  64  97 CALM      29.86F
MOSINEE        CLOUDY    64  64 100 CALM      29.88F
MARSHFIELD     CLEAR     67  64  90 NE3       29.86F
WISC RAPIDS    CLOUDY    68  67  96 NE3       29.87F
STEVENS POINT  CLOUDY    64  64 100 CALM      29.87F
WAUPACA        CLOUDY    66  64  94 CALM      29.87S
SHAWANO        CLEAR     68  63  83 CALM      29.86F
CLINTONVILLE   CLOUDY    70  61  73 CALM      29.86F
WAUTOMA        CLOUDY    67  66  97 CALM      29.87F
$$

WIZ038-039-048-051-220600-
FOX VALLEY

CITY           SKY/WX    TMP DP  RH WIND       PRES   REMARKS
NWS GREEN BAY  CLOUDY    71  65  81 S7        29.86F
APPLETON       CLOUDY    68  61  77 CALM      29.86F
OSHKOSH        CLOUDY    67  61  81 S9        29.86F
FOND DU LAC    CLOUDY    66  60  81 SE12      29.87F
$$

WIZ022-050-052-220600-
EAST CENTRAL WISCONSIN

CITY           SKY/WX    TMP DP  RH WIND       PRES   REMARKS
EPHRAIM        FAIR      67  66  94 CALM      29.86F
WASHINGTON ISL FAIR      67  66  97 CALM      29.86F
STURGEON BAY     N/A     71  64  78 SE6       29.84F
MANITOWOC      CLOUDY    70  60  70 S10       29.87F
SHEBOYGAN      CLOUDY    66  61  84 S10       29.88F
$$

LMZ563-521-522-541>543-220600-
LAKESHORE

STATION/POSITION TIME  TEMP    WIND        PRES    VSBY  WAVE
                       AIR SEA DIR/SP/G                  HT/PER
                 (UTC) (F)     (DEG/KT/KT) (MB)    (MI)  (FT/S)
SHEBOYGAN LKSHOR 0500   67     170/ 16/ 19 1011.2F
KEWAUNEE LKSHORE 0442   70     140/  9/ 12 1010.8F
NORTHPORT PIER   0440   69     160/  1/  3 1011.2F
N MID LAKE BUOY  0450   69 67  180/  8/  8 1011.6F         0
S GREEN BAY BUOY 0500   75 75  140/  4/  4 1010.6
SISTER BAY LKSHO 0403   73        CALM       N/A
CHAMBERS ISLAND  0440   69     160/  3/  4 1010.8F
MENOMINEE LKSHOR 0442   75     200/  4/  4 1011.0F
$$




USA.gov is the U.S. government's official web portal to all federal, state and local government web resources and services.